Location: Augustenthal
(51.7167°N, 10.2833°E)
Time: 23:07:56
(UTC+00:00)

Cosmos 1461 - Pass Details

Date: 18 May 2021
Orbit: 510 x 653 km, 65.0° (Epoch: 24 June)

Event Time Altitude Azimuth Distance (km) Brightness Sun altitude
Rises 22:00:43 0° 243° (WSW) 2,966 6.5 -16.7°
Reaches altitude 10° 22:03:08 10° 250° (WSW) 2,051 5.7 -16.8°
Maximum altitude 22:07:34 42° 322° (NW) 919 4.4 -17.0°
Drops below altitude 10° 22:11:55 10° 34° (NNE) 2,006 6.2 -17.2°
Sets 22:14:16 0° 41° (NE) 2,893 7.0 -17.3°
